Regional Weather Roundup
Issued by NWS

Home | Current Version | Previous Version | Text Only | Print | Product List | Glossary On
Versions: 1 2 3 4 5 6 7 8 9 10 11 12 13 14 15 16 17 18 19 20 21 22 23 24 25 26 27 28 29 30 31 32 33 34 35 36 37 38 39 40 41 42 43 44 45 46 47 48 49 50
000
ASCA44 KEWX 050820
RWRMX

LATIN AMERICA AND CARIBBEAN REGIONAL WEATHER ROUNDUP
NATIONAL WEATHER SERVICE AUSTIN/SAN ANTONIO TX
200 AM CST THU MAR 05 2015

NOTE: "FAIR" INDICATED FEW OR NO CLOUDS BELOW 12,000 FEET WITH NO
SIGNIFICANT WEATHER AND/OR OBSTRUCTIONS TO VISIBILITY.

BAJA CALIFORNIA

CITY           SKY/WX    TMP DP  RH WIND       PRES   REMARKS
TIJUANA        CLEAR     54  41  62 E5        30.19R

NORTHWESTERN MEXICO

CITY           SKY/WX    TMP DP  RH WIND       PRES   REMARKS
HERMOSILLO       N/A    N/A N/A N/A MISG        N/A

NORTHEASTERN MEXICO

CITY           SKY/WX    TMP DP  RH WIND       PRES   REMARKS
MONTERREY      MOCLDY    55  48  76 N23G35    30.01R
REYNOSA        CLOUDY    59  52  77 NW29G40   29.99R BLWGDUST
CD. VICTORIA   PTCLDY    68  68 100 CALM      29.88R

WESTERN MEXICO

CITY           SKY/WX    TMP DP  RH WIND       PRES   REMARKS
DEL BAJIO      MOCLDY    59  39  47 CALM      30.26R
GUADALAJARA    CLOUDY    61  41  48 S3        30.15F
MAZATLAN       MOCLDY    61  55  82 W7        29.93F
P. VALLARTA    MOCLDY    68  66  94 CALM      29.91F
ZACATECAS      PTCLDY    54  28  37 SW9       30.25

CENTRAL MEXICO

CITY           SKY/WX    TMP DP  RH WIND       PRES   REMARKS
MEXICO CITY    PTCLDY    63  41  45 NW2       30.26F
MORELIA        PTCLDY    54  39  58 CALM      30.22F
QUERETARO      MOCLDY    61  39  44 W7        30.27F
S. LUIS POTOSI MOCLDY    66  37  34 NW7       30.19F
TOLUCA         PTCLDY    48  36  61 N7        30.36S WCI  45

SOUTHERN MEXICO

CITY           SKY/WX    TMP DP  RH WIND       PRES   REMARKS
ACAPULCO       PTCLDY    73  72  94 N2        29.87F

YUCATAN PENINSULA

CITY           SKY/WX    TMP DP  RH WIND       PRES   REMARKS
CANCUN         PTCLDY    79  73  83 SE12      29.96F
COZUMEL        PTCLDY    72  70  94 SE6       29.95F
MERIDA         CLEAR     75  70  83 E14       29.90F
TAPACHULA      MOCLDY    79  75  89 CALM      29.88F
TUX. GUTIERREZ CLEAR     66  57  72 CALM      29.91F

CENTRAL AMERICA

CITY           SKY/WX    TMP DP  RH WIND       PRES   REMARKS

CARIBBEAN

CITY           SKY/WX    TMP DP  RH WIND       PRES   REMARKS
ARUBA          SHOWER    75  72  88 E15       29.89S
KINGSTON       PTCLDY    81  68  65 E16       29.94S
NASSAU         PTCLDY    75  70  83 SE7       30.11F
SAN JUAN       PTCLDY    75  66  73 E14       30.06F
SANTO DOMINGO  PTCLDY    70  68  94 N6        30.03F

$$



USA.gov is the U.S. government's official web portal to all federal, state and local government web resources and services.